| time (UTC) | temp C | wind direction | speed KPH | gust KPH | rain 1hr cm | rain 24hr cm | rain mn cm | humidity % | barometer mb |
| 20260507160902 | 16 | 292 | 4.8 | 16.1 | 0.00 | 0.10 | 0.03 | 44 | 1010.1 |
| 20260507160326 | 16 | 292 | 8.0 | 19.3 | 0.00 | 0.10 | 0.03 | 49 | 1010.2 |
| 20260507155830 | 16 | 296 | 9.7 | 19.3 | 0.00 | 0.10 | 0.03 | 49 | 1010.3 |
| 20260507155332 | 16 | 360 | 8.0 | 19.3 | 0.00 | 0.10 | 0.03 | 46 | 1010.4 |
| 20260507154840 | 16 | 5 | 9.7 | 22.5 | 0.00 | 0.10 | 0.03 | 50 | 1010.4 |
| 20260507154325 | 16 | 337 | 6.4 | 22.5 | 0.00 | 0.10 | 0.03 | 48 | 1010.4 |
| 20260507153830 | 16 | 287 | 4.8 | 14.5 | 0.00 | 0.10 | 0.03 | 48 | 1010.4 |
| 20260507153334 | 15 | 82 | 6.4 | 17.7 | 0.00 | 0.10 | 0.03 | 49 | 1010.5 |
| 20260507152826 | 15 | 306 | 6.4 | 20.9 | 0.00 | 0.10 | 0.03 | 45 | 1010.6 |
| 20260507152329 | 15 | 281 | 9.7 | 20.9 | 0.00 | 0.10 | 0.03 | 46 | 1010.7 |
| 20260507151834 | 15 | 321 | 8.0 | 16.1 | 0.00 | 0.10 | 0.03 | 48 | 1010.7 |
| 20260507151338 | 15 | 338 | 6.4 | 11.3 | 0.00 | 0.10 | 0.03 | 51 | 1010.8 |
| 20260507150843 | 15 | 319 | 8.0 | 11.3 | 0.00 | 0.10 | 0.03 | 51 | 1010.8 |
| 20260507150347 | 15 | 303 | 6.4 | 11.3 | 0.00 | 0.10 | 0.03 | 49 | 1011.1 |
| 20260507145831 | 14 | 337 | 6.4 | 12.9 | 0.00 | 0.10 | 0.03 | 51 | 1011.1 |
| 20260507145335 | 14 | 344 | 8.0 | 14.5 | 0.00 | 0.23 | 0.03 | 50 | 1011.3 |
| 20260507144839 | 14 | 323 | 6.4 | 12.9 | 0.00 | 0.23 | 0.03 | 47 | 1011.4 |
| 20260507144404 | 14 | 13 | 6.4 | 12.9 | 0.00 | 0.23 | 0.03 | 47 | 1011.4 |
| 20260507143828 | 14 | 347 | 8.0 | 17.7 | 0.00 | 0.23 | 0.03 | 47 | 1011.4 |
| 20260507143332 | 14 | 342 | 8.0 | 17.7 | 0.00 | 0.23 | 0.03 | 50 | 1011.3 |
| 20260507142844 | 14 | 321 | 9.7 | 16.1 | 0.00 | 0.23 | 0.03 | 50 | 1011.4 |
| 20260507142347 | 15 | 355 | 9.7 | 16.1 | 0.00 | 0.23 | 0.03 | 54 | 1011.4 |
| 20260507141830 | 14 | 329 | 8.0 | 14.5 | 0.00 | 0.23 | 0.03 | 53 | 1011.3 |
| 20260507141335 | 13 | 322 | 8.0 | 16.1 | 0.00 | 0.23 | 0.03 | 53 | 1011.5 |
| 20260507140900 | 13 | 270 | 4.8 | 16.1 | 0.00 | 0.23 | 0.03 | 53 | 1011.5 |
| 20260507140323 | 13 | 331 | 9.7 | 14.5 | 0.00 | 0.23 | 0.03 | 56 | 1011.6 |
| 20260507135831 | 13 | 336 | 8.0 | 14.5 | 0.00 | 0.23 | 0.03 | 55 | 1011.7 |
| 20260507135334 | 13 | 313 | 8.0 | 12.9 | 0.00 | 0.41 | 0.03 | 59 | 1011.7 |
| 20260507134839 | 13 | 319 | 8.0 | 11.3 | 0.00 | 0.41 | 0.03 | 56 | 1011.8 |
| 20260507134324 | 13 | 311 | 8.0 | 12.9 | 0.00 | 0.41 | 0.03 | 55 | 1011.9 |
| 20260507133828 | 13 | 306 | 8.0 | 12.9 | 0.00 | 0.41 | 0.03 | 58 | 1012.1 |
| 20260507133333 | 13 | 316 | 8.0 | 11.3 | 0.00 | 0.41 | 0.03 | 57 | 1011.9 |
| 20260507132841 | 13 | 314 | 8.0 | 9.7 | 0.00 | 0.41 | 0.03 | 58 | 1012.2 |
| 20260507132345 | 13 | 327 | 4.8 | 9.7 | 0.00 | 0.41 | 0.03 | 58 | 1012.1 |
| 20260507131829 | 13 | 19 | 4.8 | 14.5 | 0.00 | 0.41 | 0.03 | 58 | 1012.1 |
| 20260507131333 | 12 | 338 | 8.0 | 14.5 | 0.00 | 0.41 | 0.03 | 57 | 1012.2 |
| 20260507130837 | 12 | 5 | 6.4 | 14.5 | 0.00 | 0.41 | 0.03 | 60 | 1012.2 |
| 20260507130342 | 12 | 302 | 4.8 | 11.3 | 0.00 | 0.41 | 0.03 | 61 | 1012.2 |
| 20260507125847 | 12 | 345 | 6.4 | 14.5 | 0.00 | 0.41 | 0.03 | 59 | 1012.0 |
| 20260507125329 | 12 | 321 | 8.0 | 14.5 | 0.00 | 0.53 | 0.03 | 60 | 1012.3 |
| 20260507124854 | 12 | 328 | 8.0 | 16.1 | 0.00 | 0.53 | 0.03 | 63 | 1012.1 |
| 20260507124338 | 12 | 323 | 8.0 | 16.1 | 0.00 | 0.53 | 0.03 | 60 | 1012.0 |
| 20260507123842 | 12 | 323 | 11.3 | 16.1 | 0.00 | 0.53 | 0.03 | 61 | 1012.0 |
| 20260507123327 | 12 | 332 | 6.4 | 16.1 | 0.00 | 0.53 | 0.03 | 63 | 1011.9 |
| 20260507122831 | 12 | 306 | 9.7 | 16.1 | 0.00 | 0.53 | 0.03 | 61 | 1011.8 |
| 20260507122355 | 12 | 304 | 8.0 | 14.5 | 0.00 | 0.53 | 0.03 | 62 | 1011.9 |
| 20260507121822 | 12 | 319 | 11.3 | 14.5 | 0.00 | 0.53 | 0.03 | 61 | 1011.7 |
| 20260507121327 | 12 | 324 | 6.4 | 12.9 | 0.00 | 0.53 | 0.03 | 63 | 1011.7 |
| 20260507120835 | 12 | 331 | 6.4 | 9.7 | 0.00 | 0.53 | 0.03 | 62 | 1011.7 |
| 20260507120340 | 12 | 331 | 6.4 | 9.7 | 0.00 | 0.53 | 0.03 | 61 | 1011.8 |
| 20260507115844 | 12 | 326 | 6.4 | 9.7 | 0.00 | 0.53 | 0.03 | 63 | 1012.0 |
| 20260507115327 | 12 | 323 | 4.8 | 9.7 | 0.00 | 0.61 | 0.03 | 63 | 1012.0 |
| 20260507114832 | 12 | 334 | 4.8 | 8.0 | 0.00 | 0.61 | 0.03 | 61 | 1011.9 |
| 20260507114336 | 12 | 323 | 4.8 | 11.3 | 0.00 | 0.61 | 0.03 | 62 | 1012.0 |
| 20260507113821 | 11 | 325 | 6.4 | 11.3 | 0.00 | 0.61 | 0.03 | 61 | 1012.0 |
| 20260507113328 | 11 | 348 | 4.8 | 8.0 | 0.00 | 0.61 | 0.03 | 61 | 1011.8 |
| 20260507112853 | 11 | 346 | 4.8 | 8.0 | 0.00 | 0.61 | 0.03 | 64 | 1011.8 |
| 20260507112356 | 11 | 329 | 4.8 | 8.0 | 0.00 | 0.61 | 0.03 | 64 | 1011.7 |
| 20260507111843 | 11 | 325 | 4.8 | 8.0 | 0.00 | 0.61 | 0.03 | 62 | 1011.7 |
| 20260507111348 | 11 | 325 | 4.8 | 8.0 | 0.00 | 0.61 | 0.03 | 61 | 1011.7 |
| 20260507110831 | 11 | 314 | 4.8 | 11.3 | 0.00 | 0.61 | 0.03 | 63 | 1011.7 |
| 20260507110336 | 11 | 317 | 4.8 | 11.3 | 0.00 | 0.61 | 0.03 | 62 | 1011.6 |
| 20260507105900 | 11 | 339 | 4.8 | 11.3 | 0.00 | 0.61 | 0.03 | 63 | 1011.6 |
| 20260507105343 | 11 | 326 | 3.2 | 9.7 | 0.00 | 0.64 | 0.03 | 63 | 1011.4 |
| 20260507104827 | 11 | 317 | 3.2 | 8.0 | 0.00 | 0.64 | 0.03 | 64 | 1011.2 |
| 20260507104332 | 11 | 317 | 3.2 | 8.0 | 0.00 | 0.64 | 0.03 | 64 | 1011.2 |
| 20260507103837 | 11 | 338 | 3.2 | 9.7 | 0.00 | 0.64 | 0.03 | 64 | 1011.1 |
| 20260507103341 | 11 | 327 | 4.8 | 9.7 | 0.00 | 0.64 | 0.03 | 64 | 1011.1 |
| 20260507102826 | 11 | 314 | 4.8 | 9.7 | 0.00 | 0.64 | 0.03 | 65 | 1011.0 |
| 20260507102329 | 11 | 326 | 4.8 | 9.7 | 0.00 | 0.64 | 0.03 | 63 | 1011.0 |
| 20260507101838 | 11 | 338 | 3.2 | 9.7 | 0.00 | 0.64 | 0.03 | 63 | 1010.9 |
| 20260507101342 | 11 | 342 | 4.8 | 9.7 | 0.00 | 0.64 | 0.03 | 63 | 1010.8 |
| 20260507100827 | 11 | 344 | 4.8 | 11.3 | 0.00 | 0.64 | 0.03 | 62 | 1010.7 |
| 20260507100352 | 12 | 337 | 4.8 | 14.5 | 0.00 | 0.64 | 0.03 | 64 | 1010.6 |
| 20260507095855 | 11 | 345 | 8.0 | 14.5 | 0.00 | 0.64 | 0.03 | 64 | 1010.7 |
| 20260507095338 | 11 | 320 | 6.4 | 9.7 | 0.00 | 0.64 | 0.03 | 68 | 1010.6 |
| 20260507094842 | 11 | 328 | 6.4 | 9.7 | 0.00 | 0.64 | 0.03 | 71 | 1010.5 |
| 20260507094327 | 11 | 313 | 4.8 | 6.4 | 0.00 | 0.64 | 0.03 | 73 | 1010.6 |
| 20260507093831 | 11 | 313 | 1.6 | 4.8 | 0.00 | 0.64 | 0.03 | 72 | 1010.6 |
| 20260507093337 | 11 | 313 | 3.2 | 4.8 | 0.00 | 0.64 | 0.03 | 71 | 1010.7 |
| 20260507092841 | 11 | 313 | 1.6 | 3.2 | 0.00 | 0.64 | 0.03 | 71 | 1010.7 |
| 20260507092343 | 11 | 313 | 3.2 | 4.8 | 0.00 | 0.64 | 0.03 | 70 | 1010.6 |
| 20260507091832 | 11 | 313 | 3.2 | 6.4 | 0.00 | 0.64 | 0.03 | 71 | 1010.7 |
| 20260507091336 | 12 | 313 | 3.2 | 6.4 | 0.00 | 0.64 | 0.03 | 71 | 1010.6 |
| 20260507090841 | 12 | 341 | 3.2 | 6.4 | 0.00 | 0.64 | 0.03 | 71 | 1010.5 |
| 20260507090325 | 12 | 341 | 3.2 | 4.8 | 0.00 | 0.64 | 0.03 | 71 | 1010.5 |
| 20260507085830 | 12 | 341 | 1.6 | 4.8 | 0.00 | 0.64 | 0.03 | 71 | 1010.5 |
| 20260507085333 | 12 | 341 | 1.6 | 4.8 | 0.00 | 0.64 | 0.03 | 71 | 1010.4 |
| 20260507084840 | 12 | 341 | 3.2 | 4.8 | 0.00 | 0.64 | 0.03 | 71 | 1010.5 |
| 20260507084326 | 12 | 341 | 3.2 | 4.8 | 0.00 | 0.64 | 0.03 | 72 | 1010.4 |
| 20260507083854 | 12 | 341 | 4.8 | 8.0 | 0.00 | 0.64 | 0.03 | 71 | 1010.4 |
| 20260507083338 | 12 | 341 | 3.2 | 8.0 | 0.00 | 0.64 | 0.03 | 71 | 1010.4 |
| 20260507082842 | 12 | 331 | 4.8 | 8.0 | 0.00 | 0.64 | 0.03 | 71 | 1010.4 |
| 20260507082346 | 12 | 331 | 4.8 | 9.7 | 0.00 | 0.64 | 0.03 | 71 | 1010.3 |
| 20260507081834 | 12 | 330 | 6.4 | 9.7 | 0.00 | 0.64 | 0.03 | 71 | 1010.2 |
| 20260507081341 | 12 | 341 | 6.4 | 14.5 | 0.00 | 0.64 | 0.03 | 72 | 1010.1 |
| 20260507080846 | 12 | 336 | 8.0 | 14.5 | 0.00 | 0.64 | 0.03 | 72 | 1010.1 |
| 20260507080329 | 12 | 331 | 6.4 | 11.3 | 0.00 | 0.64 | 0.03 | 74 | 1010.0 |
| 20260507075837 | 12 | 331 | 8.0 | 11.3 | 0.00 | 0.64 | 0.03 | 73 | 1009.9 |
| 20260507075340 | 12 | 337 | 4.8 | 9.7 | 0.00 | 0.64 | 0.03 | 74 | 1009.9 |
| 20260507074845 | 12 | 340 | 4.8 | 8.0 | 0.00 | 0.64 | 0.03 | 76 | 1009.9 |
| 20260507074329 | 12 | 339 | 4.8 | 9.7 | 0.00 | 0.64 | 0.03 | 77 | 1009.9 |
| 20260507073833 | 12 | 334 | 6.4 | 9.7 | 0.00 | 0.64 | 0.03 | 79 | 1009.9 |
| 20260507073338 | 12 | 340 | 3.2 | 6.4 | 0.00 | 0.64 | 0.03 | 80 | 1010.0 |
| 20260507072902 | 12 | 340 | 1.6 | 8.0 | 0.00 | 0.64 | 0.03 | 79 | 1010.1 |
| 20260507072325 | 12 | 340 | 3.2 | 8.0 | 0.03 | 0.64 | 0.03 | 79 | 1010.1 |
| 20260507071829 | 13 | 340 | 1.6 | 6.4 | 0.03 | 0.64 | 0.03 | 79 | 1010.1 |
| 20260507071357 | 13 | 340 | 3.2 | 6.4 | 0.03 | 0.64 | 0.03 | 79 | 1010.2 |
| 20260507070844 | 13 | 345 | 3.2 | 6.4 | 0.03 | 0.64 | 0.03 | 80 | 1010.1 |
| 20260507070328 | 12 | 343 | 3.2 | 4.8 | 0.03 | 0.64 | 0.03 | 81 | 1010.2 |
| 20260507065833 | 13 | 343 | 3.2 | 8.0 | 0.03 | 0.64 | 0.03 | 81 | 1010.2 |
| 20260507065336 | 12 | 343 | 3.2 | 8.0 | 0.03 | 0.64 | 0.03 | 80 | 1010.2 |
| 20260507064821 | 12 | 319 | 1.6 | 4.8 | 0.03 | 0.64 | 0.03 | 81 | 1010.3 |
| 20260507064348 | 13 | 319 | 1.6 | 4.8 | 0.03 | 0.64 | 0.03 | 81 | 1010.3 |
| 20260507063832 | 13 | 319 | 3.2 | 4.8 | 0.03 | 0.64 | 0.03 | 81 | 1010.4 |
| 20260507063335 | 13 | 319 | 1.6 | 3.2 | 0.03 | 0.64 | 0.03 | 81 | 1010.4 |
| 20260507062843 | 13 | 319 | 1.6 | 4.8 | 0.03 | 0.64 | 0.03 | 81 | 1010.3 |
| 20260507062327 | 13 | 319 | 1.6 | 8.0 | 0.00 | 0.61 | 0.00 | 81 | 1010.3 |
| 20260507061831 | 13 | 319 | 3.2 | 8.0 | 0.00 | 0.61 | 0.00 | 80 | 1010.2 |
| 20260507061336 | 13 | 307 | 4.8 | 6.4 | 0.00 | 0.61 | 0.00 | 79 | 1010.3 |
| 20260507060823 | 13 | 307 | 3.2 | 6.4 | 0.00 | 0.61 | 0.00 | 78 | 1010.2 |
| 20260507060331 | 13 | 307 | 3.2 | 6.4 | 0.00 | 0.61 | 0.00 | 78 | 1010.4 |
| 20260507055836 | 13 | 307 | 3.2 | 6.4 | 0.00 | 0.61 | 0.00 | 77 | 1010.3 |
| 20260507055339 | 13 | 320 | 3.2 | 8.0 | 0.00 | 0.61 | 0.00 | 77 | 1010.1 |
| 20260507054843 | 13 | 320 | 3.2 | 9.7 | 0.00 | 0.61 | 0.00 | 77 | 1010.1 |
| 20260507054346 | 13 | 323 | 4.8 | 9.7 | 0.00 | 0.61 | 0.00 | 76 | 1009.9 |
| 20260507053833 | 13 | 330 | 6.4 | 9.7 | 0.00 | 0.61 | 0.00 | 76 | 1009.9 |
| 20260507053357 | 13 | 327 | 4.8 | 14.5 | 0.00 | 0.61 | 0.00 | 76 | 1009.9 |
| 20260507052841 | 13 | 325 | 8.0 | 16.1 | 0.00 | 0.61 | 0.00 | 76 | 1010.0 |
| 20260507052324 | 13 | 307 | 9.7 | 16.1 | 0.00 | 0.61 | 0.00 | 75 | 1010.1 |
| 20260507051829 | 13 | 346 | 6.4 | 12.9 | 0.00 | 0.61 | 0.00 | 75 | 1009.8 |
| 20260507051334 | 13 | 329 | 8.0 | 14.5 | 0.00 | 0.61 | 0.00 | 75 | 1009.8 |
| 20260507050842 | 14 | 355 | 6.4 | 14.5 | 0.00 | 0.61 | 0.00 | 75 | 1009.8 |
| 20260507050345 | 14 | 342 | 6.4 | 16.1 | 0.00 | 0.61 | 0.00 | 75 | 1009.8 |
| 20260507045831 | 14 | 333 | 9.7 | 16.1 | 0.00 | 0.61 | 0.00 | 75 | 1009.8 |
| 20260507045358 | 14 | 342 | 8.0 | 14.5 | 0.00 | 0.61 | 0.00 | 76 | 1009.9 |
| 20260507044842 | 14 | 325 | 8.0 | 16.1 | 0.00 | 0.61 | 0.00 | 77 | 1010.1 |
| 20260507044326 | 14 | 323 | 6.4 | 16.1 | 0.00 | 0.61 | 0.00 | 76 | 1009.9 |
| 20260507043832 | 14 | 342 | 9.7 | 16.1 | 0.00 | 0.61 | 0.00 | 76 | 1009.9 |
| 20260507043340 | 14 | 346 | 6.4 | 17.7 | 0.00 | 0.61 | 0.00 | 76 | 1009.8 |
| 20260507042825 | 14 | 334 | 8.0 | 16.1 | 0.00 | 0.61 | 0.00 | 77 | 1009.9 |
| 20260507042328 | 14 | 336 | 9.7 | 16.1 | 0.00 | 0.61 | 0.00 | 77 | 1010.1 |
| 20260507041833 | 14 | 348 | 6.4 | 19.3 | 0.00 | 0.61 | 0.00 | 77 | 1010.1 |
| 20260507041320 | 14 | 336 | 9.7 | 22.5 | 0.00 | 0.61 | 0.00 | 76 | 1009.9 |
| 20260507040848 | 14 | 317 | 14.5 | 22.5 | 0.00 | 0.61 | 0.00 | 78 | 1009.9 |
| 20260507040332 | 14 | 322 | 4.8 | 9.7 | 0.00 | 0.61 | 0.00 | 78 | 1009.9 |
| 20260507035855 | 14 | 335 | 3.2 | 9.7 | 0.00 | 0.61 | 0.00 | 77 | 1010.0 |
| 20260507035338 | 14 | 319 | 4.8 | 11.3 | 0.00 | 0.61 | 0.61 | 77 | 1010.4 |
| 20260507034842 | 14 | 331 | 4.8 | 11.3 | 0.00 | 0.61 | 0.61 | 78 | 1010.4 |
| 20260507034327 | 14 | 342 | 3.2 | 6.4 | 0.00 | 0.61 | 0.61 | 78 | 1010.1 |
| 20260507033831 | 14 | 20 | 3.2 | 8.0 | 0.00 | 0.61 | 0.61 | 77 | 1009.8 |
| 20260507033356 | 14 | 355 | 1.6 | 8.0 | 0.00 | 0.61 | 0.61 | 77 | 1009.6 |
| 20260507032840 | 14 | 345 | 4.8 | 9.7 | 0.00 | 0.61 | 0.61 | 78 | 1009.6 |
| 20260507032343 | 14 | 355 | 6.4 | 9.7 | 0.00 | 0.61 | 0.61 | 79 | 1009.8 |
| 20260507031828 | 14 | 332 | 3.2 | 8.0 | 0.00 | 0.61 | 0.61 | 79 | 1009.8 |
| 20260507031352 | 14 | 347 | 4.8 | 14.5 | 0.00 | 0.61 | 0.61 | 78 | 1009.9 |
| 20260507030836 | 14 | 344 | 6.4 | 14.5 | 0.00 | 0.61 | 0.61 | 79 | 1009.8 |
| 20260507030401 | 14 | 327 | 8.0 | 12.9 | 0.00 | 0.61 | 0.61 | 79 | 1010.0 |
| 20260507025828 | 14 | 344 | 8.0 | 17.7 | 0.00 | 0.61 | 0.61 | 79 | 1010.0 |
| 20260507025351 | 14 | 13 | 8.0 | 17.7 | 0.00 | 0.61 | 0.61 | 79 | 1009.9 |
| 20260507024838 | 15 | 11 | 11.3 | 17.7 | 0.00 | 0.61 | 0.61 | 79 | 1010.0 |
| 20260507024343 | 15 | 335 | 8.0 | 17.7 | 0.00 | 0.61 | 0.61 | 80 | 1010.0 |
| 20260507023827 | 15 | 335 | 9.7 | 17.7 | 0.00 | 0.61 | 0.61 | 80 | 1009.5 |
| 20260507023330 | 15 | 346 | 6.4 | 17.7 | 0.00 | 0.61 | 0.61 | 80 | 1009.5 |
| 20260507022834 | 15 | 331 | 8.0 | 16.1 | 0.00 | 0.61 | 0.61 | 80 | 1009.4 |
| 20260507022336 | 15 | 345 | 6.4 | 16.1 | 0.00 | 0.61 | 0.61 | 80 | 1009.4 |
| 20260507021840 | 15 | 331 | 8.0 | 17.7 | 0.00 | 0.61 | 0.61 | 80 | 1009.3 |
| 20260507021323 | 15 | 344 | 8.0 | 24.1 | 0.00 | 0.61 | 0.61 | 80 | 1009.3 |
| 20260507020828 | 15 | 360 | 9.7 | 24.1 | 0.00 | 0.61 | 0.61 | 80 | 1009.2 |
| 20260507020355 | 15 | 315 | 11.3 | 20.9 | 0.00 | 0.61 | 0.61 | 80 | 1009.4 |
| 20260507015825 | 15 | 328 | 16.1 | 29.0 | 0.00 | 0.61 | 0.61 | 80 | 1009.1 |
| 20260507015348 | 15 | 5 | 9.7 | 29.0 | 0.00 | 0.61 | 0.61 | 80 | 1009.2 |
| 20260507014830 | 15 | 5 | 17.7 | 30.6 | 0.00 | 0.61 | 0.61 | 80 | 1009.0 |
| 20260507014334 | 15 | 310 | 19.3 | 30.6 | 0.00 | 0.61 | 0.61 | 80 | 1008.7 |
| 20260507013838 | 15 | 306 | 22.5 | 27.4 | 0.00 | 0.61 | 0.61 | 80 | 1009.1 |
| 20260507013321 | 15 | 329 | 22.5 | 27.4 | 0.00 | 0.61 | 0.61 | 80 | 1009.1 |
| 20260507012827 | 15 | 336 | 11.3 | 19.3 | 0.00 | 0.61 | 0.61 | 80 | 1009.0 |
| 20260507012334 | 16 | 314 | 14.5 | 19.3 | 0.00 | 0.61 | 0.61 | 79 | 1009.3 |
| 20260507011842 | 16 | 345 | 9.7 | 16.1 | 0.00 | 0.61 | 0.61 | 79 | 1009.4 |
| 20260507011327 | 16 | 360 | 8.0 | 17.7 | 0.00 | 0.61 | 0.61 | 78 | 1009.5 |
| 20260507010831 | 16 | 350 | 11.3 | 17.7 | 0.00 | 0.61 | 0.61 | 77 | 1009.3 |
| 20260507010335 | 16 | 342 | 8.0 | 11.3 | 0.00 | 0.61 | 0.61 | 77 | 1009.1 |
| 20260507005826 | 16 | 13 | 3.2 | 9.7 | 0.00 | 0.61 | 0.61 | 76 | 1009.3 |
| 20260507005348 | 16 | 31 | 3.2 | 9.7 | 0.00 | 0.61 | 0.61 | 77 | 1009.5 |
| 20260507004831 | 16 | 351 | 4.8 | 9.7 | 0.00 | 0.61 | 0.61 | 78 | 1009.6 |
| 20260507004354 | 16 | 14 | 4.8 | 12.9 | 0.00 | 0.61 | 0.61 | 78 | 1009.5 |
| 20260507003840 | 16 | 327 | 8.0 | 16.1 | 0.00 | 0.61 | 0.61 | 77 | 1009.5 |
| 20260507003324 | 16 | 346 | 8.0 | 19.3 | 0.00 | 0.61 | 0.61 | 78 | 1009.3 |
| 20260507002827 | 16 | 317 | 9.7 | 19.3 | 0.00 | 0.61 | 0.61 | 78 | 1009.1 |
| 20260507002330 | 17 | 298 | 11.3 | 19.3 | 0.00 | 0.61 | 0.61 | 78 | 1009.0 |
| 20260507001834 | 17 | 320 | 11.3 | 19.3 | 0.00 | 0.61 | 0.61 | 78 | 1009.0 |
| 20260507001401 | 17 | 327 | 9.7 | 17.7 | 0.00 | 0.61 | 0.61 | 78 | 1008.7 |
| 20260507000904 | 17 | 310 | 9.7 | 17.7 | 0.00 | 0.61 | 0.61 | 78 | 1008.6 |
| 20260507000328 | 17 | 286 | 9.7 | 17.7 | 0.00 | 0.61 | 0.61 | 78 | 1008.6 |
| 20260506235854 | 17 | 296 | 9.7 | 17.7 | 0.00 | 0.61 | 0.61 | 78 | 1008.5 |
| 20260506235335 | 17 | 300 | 11.3 | 16.1 | 0.00 | 0.61 | 0.61 | 78 | 1008.5 |
| 20260506234839 | 17 | 301 | 9.7 | 14.5 | 0.00 | 0.61 | 0.61 | 78 | 1008.4 |
| 20260506234346 | 17 | 296 | 9.7 | 14.5 | 0.00 | 0.61 | 0.61 | 78 | 1008.2 |
| 20260506233848 | 17 | 305 | 9.7 | 14.5 | 0.00 | 0.61 | 0.61 | 78 | 1008.1 |
| 20260506233351 | 17 | 299 | 8.0 | 16.1 | 0.00 | 0.61 | 0.61 | 79 | 1008.1 |
| 20260506232837 | 17 | 284 | 8.0 | 16.1 | 0.00 | 0.61 | 0.61 | 79 | 1007.9 |
| 20260506232343 | 17 | 287 | 9.7 | 16.1 | 0.00 | 0.61 | 0.61 | 80 | 1007.8 |
| 20260506231827 | 18 | 301 | 8.0 | 16.1 | 0.00 | 0.61 | 0.61 | 81 | 1007.5 |
| 20260506231330 | 18 | 355 | 9.7 | 16.1 | 0.00 | 0.61 | 0.61 | 81 | 1007.6 |
| 20260506230833 | 18 | 312 | 9.7 | 16.1 | 0.00 | 0.61 | 0.61 | 81 | 1007.7 |
| 20260506230337 | 18 | 317 | 9.7 | 19.3 | 0.00 | 0.61 | 0.61 | 81 | 1007.5 |
| 20260506225841 | 18 | 322 | 9.7 | 19.3 | 0.00 | 0.61 | 0.61 | 81 | 1007.5 |
| 20260506225343 | 18 | 334 | 8.0 | 16.1 | 0.00 | 0.61 | 0.61 | 83 | 1007.6 |
| 20260506224827 | 18 | 329 | 6.4 | 16.1 | 0.00 | 0.61 | 0.61 | 84 | 1007.6 |
| 20260506224330 | 18 | 337 | 8.0 | 16.1 | 0.00 | 0.61 | 0.61 | 85 | 1007.5 |
| 20260506223834 | 18 | 294 | 11.3 | 16.1 | 0.00 | 0.61 | 0.61 | 84 | 1007.4 |
| 20260506223322 | 18 | 323 | 8.0 | 11.3 | 0.00 | 0.61 | 0.61 | 86 | 1007.4 |
| 20260506222849 | 19 | 304 | 8.0 | 11.3 | 0.00 | 0.61 | 0.61 | 88 | 1007.1 |
| 20260506222350 | 19 | 292 | 6.4 | 8.0 | 0.00 | 0.61 | 0.61 | 90 | 1007.0 |
| 20260506221833 | 19 | 272 | 6.4 | 8.0 | 0.00 | 0.61 | 0.61 | 90 | 1007.1 |
| 20260506221337 | 20 | 191 | 3.2 | 3.2 | 0.00 | 0.61 | 0.61 | 90 | 1007.1 |
| 20260506220821 | 20 | 191 | 1.6 | 3.2 | 0.00 | 0.61 | 0.61 | 90 | 1007.1 |
| 20260506220348 | 20 | 191 | 0.0 | 3.2 | 0.03 | 0.61 | 0.61 | 90 | 1006.9 |
| 20260506215831 | 20 | 191 | 0.0 | 1.6 | 0.03 | 0.61 | 0.61 | 90 | 1006.8 |
| 20260506215332 | 19 | 191 | 0.0 | 3.2 | 0.03 | 0.61 | 0.61 | 90 | 1006.7 |
| 20260506214836 | 19 | 191 | 1.6 | 4.8 | 0.05 | 0.61 | 0.61 | 90 | 1006.9 |
| 20260506214339 | 20 | 191 | 1.6 | 6.4 | 0.05 | 0.61 | 0.61 | 90 | 1006.9 |
| 20260506213843 | 20 | 196 | 1.6 | 4.8 | 0.05 | 0.61 | 0.61 | 90 | 1006.8 |
| 20260506213326 | 20 | 205 | 1.6 | 4.8 | 0.05 | 0.61 | 0.61 | 89 | 1006.8 |
| 20260506212834 | 20 | 212 | 0.0 | 4.8 | 0.05 | 0.61 | 0.61 | 89 | 1006.7 |
| 20260506212336 | 20 | 212 | 1.6 | 8.0 | 0.05 | 0.61 | 0.61 | 89 | 1006.4 |
| 20260506211903 | 20 | 186 | 1.6 | 9.7 | 0.05 | 0.61 | 0.61 | 89 | 1006.3 |
| 20260506211326 | 20 | 192 | 4.8 | 9.7 | 0.05 | 0.61 | 0.61 | 89 | 1006.3 |
| 20260506210829 | 20 | 184 | 3.2 | 8.0 | 0.05 | 0.61 | 0.61 | 88 | 1006.3 |
| 20260506210333 | 20 | 195 | 3.2 | 6.4 | 0.03 | 0.58 | 0.58 | 88 | 1006.2 |
| 20260506205836 | 20 | 196 | 3.2 | 4.8 | 0.03 | 0.58 | 0.58 | 87 | 1006.1 |
| 20260506205339 | 20 | 196 | 3.2 | 4.8 | 0.03 | 0.58 | 0.58 | 86 | 1006.1 |
| 20260506204842 | 20 | 196 | 0.0 | 6.4 | 0.00 | 0.56 | 0.56 | 86 | 1006.1 |
| 20260506204326 | 21 | 196 | 1.6 | 8.0 | 0.00 | 0.56 | 0.56 | 85 | 1006.0 |
| 20260506203834 | 21 | 196 | 4.8 | 8.0 | 0.00 | 0.56 | 0.56 | 84 | 1006.0 |
| 20260506203324 | 21 | 202 | 1.6 | 4.8 | 0.00 | 0.56 | 0.56 | 85 | 1005.9 |
| 20260506202828 | 21 | 202 | 1.6 | 8.0 | 0.00 | 0.56 | 0.56 | 85 | 1006.0 |
| 20260506202330 | 21 | 202 | 4.8 | 8.0 | 0.00 | 0.56 | 0.56 | 84 | 1005.8 |
| 20260506201834 | 21 | 193 | 3.2 | 9.7 | 0.00 | 0.56 | 0.56 | 84 | 1005.7 |
| 20260506201341 | 21 | 188 | 3.2 | 9.7 | 0.00 | 0.56 | 0.56 | 85 | 1005.7 |
| 20260506200825 | 21 | 189 | 3.2 | 9.7 | 0.00 | 0.56 | 0.56 | 84 | 1005.7 |
| 20260506200328 | 21 | 212 | 3.2 | 9.7 | 0.00 | 0.56 | 0.56 | 85 | 1005.9 |
| 20260506195833 | 21 | 204 | 4.8 | 9.7 | 0.00 | 0.56 | 0.56 | 84 | 1005.8 |
| 20260506195339 | 21 | 185 | 3.2 | 8.0 | 0.00 | 0.56 | 0.56 | 84 | 1005.9 |
| 20260506194842 | 21 | 194 | 3.2 | 8.0 | 0.00 | 0.56 | 0.56 | 84 | 1005.8 |
| 20260506194346 | 21 | 233 | 1.6 | 8.0 | 0.00 | 0.56 | 0.56 | 86 | 1006.0 |
| 20260506193831 | 21 | 246 | 3.2 | 8.0 | 0.00 | 0.56 | 0.56 | 85 | 1006.0 |
| 20260506193339 | 21 | 189 | 3.2 | 8.0 | 0.00 | 0.56 | 0.56 | 85 | 1005.9 |
| 20260506192842 | 21 | 189 | 3.2 | 8.0 | 0.00 | 0.56 | 0.56 | 84 | 1005.9 |
| 20260506192325 | 21 | 225 | 3.2 | 6.4 | 0.00 | 0.56 | 0.56 | 85 | 1006.0 |
| 20260506191828 | 21 | 263 | 3.2 | 8.0 | 0.00 | 0.56 | 0.56 | 86 | 1006.0 |
| 20260506191332 | 21 | 343 | 3.2 | 9.7 | 0.00 | 0.56 | 0.56 | 86 | 1005.9 |
| 20260506190836 | 21 | 230 | 4.8 | 11.3 | 0.00 | 0.56 | 0.56 | 87 | 1005.9 |
| 20260506190339 | 21 | 232 | 3.2 | 11.3 | 0.00 | 0.56 | 0.56 | 88 | 1005.9 |
| 20260506185843 | 20 | 219 | 1.6 | 11.3 | 0.00 | 0.56 | 0.56 | 89 | 1005.8 |
| 20260506185325 | 20 | 174 | 4.8 | 11.3 | 0.00 | 0.56 | 0.56 | 90 | 1006.0 |
| 20260506184829 | 20 | 181 | 6.4 | 11.3 | 0.00 | 0.56 | 0.56 | 90 | 1006.0 |
| 20260506184333 | 20 | 199 | 3.2 | 11.3 | 0.00 | 0.56 | 0.56 | 90 | 1006.1 |
| 20260506183840 | 20 | 250 | 3.2 | 11.3 | 0.03 | 0.56 | 0.56 | 90 | 1006.4 |
| 20260506183324 | 20 | 191 | 6.4 | 11.3 | 0.03 | 0.56 | 0.56 | 90 | 1006.4 |
| 20260506182847 | 19 | 206 | 3.2 | 11.3 | 0.03 | 0.56 | 0.56 | 90 | 1006.3 |
| 20260506182350 | 19 | 193 | 4.8 | 11.3 | 0.03 | 0.56 | 0.56 | 90 | 1006.4 |
| 20260506181835 | 19 | 196 | 4.8 | 14.5 | 0.03 | 0.56 | 0.56 | 90 | 1006.4 |
| 20260506181359 | 20 | 190 | 6.4 | 14.5 | 0.03 | 0.56 | 0.56 | 90 | 1006.5 |
| 20260506180842 | 20 | 186 | 0.0 | 6.4 | 0.03 | 0.56 | 0.56 | 90 | 1006.6 |
| 20260506180325 | 20 | 192 | 3.2 | 9.7 | 0.03 | 0.56 | 0.56 | 90 | 1006.5 |
| 20260506175849 | 20 | 200 | 1.6 | 9.7 | 0.03 | 0.56 | 0.56 | 89 | 1006.4 |
| 20260506175350 | 20 | 205 | 1.6 | 6.4 | 0.03 | 0.56 | 0.56 | 89 | 1006.4 |
| 20260506174833 | 20 | 244 | 3.2 | 6.4 | 0.03 | 0.56 | 0.56 | 88 | 1006.4 |
| 20260506174336 | 20 | 238 | 3.2 | 8.0 | 0.03 | 0.56 | 0.56 | 86 | 1006.5 |
| 20260506173821 | 20 | 242 | 3.2 | 8.0 | 0.00 | 0.53 | 0.53 | 85 | 1006.4 |
| 20260506173347 | 20 | 196 | 1.6 | 8.0 | 0.00 | 0.53 | 0.53 | 85 | 1006.3 |
| 20260506172830 | 20 | 196 | 1.6 | 8.0 | 0.00 | 0.53 | 0.53 | 84 | 1006.2 |
| 20260506172353 | 20 | 184 | 3.2 | 8.0 | 0.00 | 0.53 | 0.53 | 84 | 1006.2 |
| 20260506171836 | 20 | 206 | 4.8 | 8.0 | 0.00 | 0.53 | 0.53 | 84 | 1006.1 |
| 20260506171327 | 20 | 198 | 3.2 | 8.0 | 0.00 | 0.53 | 0.53 | 84 | 1006.1 |
| 20260506170831 | 20 | 198 | 1.6 | 8.0 | 0.00 | 0.53 | 0.53 | 84 | 1006.2 |
| 20260506170354 | 20 | 227 | 0.0 | 8.0 | 0.00 | 0.53 | 0.53 | 85 | 1006.2 |
| 20260506165836 | 20 | 194 | 3.2 | 11.3 | 0.00 | 0.53 | 0.53 | 85 | 1006.1 |
| 20260506165358 | 20 | 217 | 6.4 | 16.1 | 0.00 | 0.53 | 0.53 | 85 | 1006.1 |
| 20260506164841 | 20 | 198 | 9.7 | 16.1 | 0.00 | 0.53 | 0.53 | 85 | 1006.1 |
| 20260506164324 | 20 | 199 | 3.2 | 17.7 | 0.00 | 0.53 | 0.53 | 85 | 1006.2 |
| 20260506163828 | 19 | 223 | 6.4 | 17.7 | 0.00 | 0.53 | 0.53 | 85 | 1006.2 |
| 20260506163331 | 19 | 215 | 4.8 | 17.7 | 0.00 | 0.53 | 0.53 | 87 | 1006.3 |
| 20260506162856 | 19 | 213 | 6.4 | 20.9 | 0.00 | 0.53 | 0.53 | 87 | 1006.2 |
| 20260506162321 | 19 | 194 | 6.4 | 20.9 | 0.00 | 0.53 | 0.53 | 87 | 1006.2 |
| 20260506161828 | 19 | 200 | 4.8 | 16.1 | 0.00 | 0.53 | 0.53 | 88 | 1006.2 |
| 20260506161332 | 19 | 191 | 8.0 | 17.7 | 0.00 | 0.53 | 0.53 | 88 | 1006.2 |